Tracking 25710 objects as of 6-Jul-2022
HD Live streaming from Space Station
objects crossing your sky now

NUSAT-24 (KALPANA CHAWIA)

Track NUSAT-24 (KALPANA CHAWIA) now!
10-day predictions


NORAD ID: 52178
Int'l Code: 2022-033X
Perigee: 480.6 km
Apogee: 492.7 km
Inclination: 97.3 °
Period: 94.2 minutes
Semi major axis: 6857 km
RCS: Unknown
Launch date: April 1, 2022
Source: United States (US)
Launch site: AIR FORCE EASTERN TEST RANGE (AFETR)
aabbcc
Your satellite tracking list
Your tracking list is empty




NASA's NSSDC Master Catalog

Two Line Element Set (TLE):
1 52178U 22033X   22186.82607941  .00004723  00000-0  17143-3 0  9994
2 52178  97.3391 268.1628 0008882 311.8230 186.2737 15.28763935 14507
Source of the keplerian elements: AFSPC